This is the latest recevied weather packets stored in our database for station/object N2OCK. If no packets are shown the sender has not sent any weather packets the latest 1 day(s).
| Time | Temp. | Humidity | Pressure | Rain* | Wind** | Luminosity | Snow |
|---|---|---|---|---|---|---|---|
| 1778045748 | 14.44° C | 87% | 1011.7 hPa | 0 mm | 1.34 m/s, 206° | 0 W/m² | - |
| 1778045446 | 14.44° C | 87% | 1011.8 hPa | 0 mm | 1.79 m/s, 213° | 0 W/m² | - |
| 1778045144 | 14.44° C | 87% | 1011.9 hPa | 0 mm | 2.24 m/s, 228° | 0 W/m² | - |
| 1778044842 | 14.44° C | 87% | 1011.8 hPa | 0 mm | 1.34 m/s, 240° | 0 W/m² | - |
| 1778044538 | 14.44° C | 86% | 1011.8 hPa | 0 mm | 2.68 m/s, 212° | 0 W/m² | - |
| 1778044235 | 14.44° C | 86% | 1011.7 hPa | 0 mm | 2.24 m/s, 261° | 0 W/m² | - |
| 1778043933 | 14.44° C | 86% | 1011.7 hPa | 0 mm | 2.24 m/s, 228° | 0 W/m² | - |
| 1778043630 | 14.44° C | 86% | 1011.9 hPa | 0 mm | 3.58 m/s, 261° | 0 W/m² | - |
| 1778043327 | 15° C | 86% | 1011.8 hPa | 0 mm | 0.89 m/s, 232° | 0 W/m² | - |
| 1778043023 | 15° C | 85% | 1011.8 hPa | 0 mm | 1.79 m/s, 296° | 0 W/m² | - |
| 1778042721 | 15° C | 85% | 1011.8 hPa | 0 mm | 1.34 m/s, 229° | 0 W/m² | - |
| 1778042418 | 15° C | 85% | 1012 hPa | 0 mm | 1.34 m/s, 283° | 0 W/m² | - |
| 1778042115 | 15° C | 85% | 1012 hPa | 0 mm | 1.34 m/s, 252° | 0 W/m² | - |
| 1778041814 | 15° C | 84% | 1012.1 hPa | 0 mm | 0.89 m/s, 203° | 0 W/m² | - |
| 1778041512 | 15° C | 84% | 1012.1 hPa | 0 mm | 2.24 m/s, 184° | 0 W/m² | - |
| 1778041210 | 15° C | 84% | 1011.9 hPa | 0 mm | 2.24 m/s, 238° | 0 W/m² | - |
| 1778040908 | 15° C | 84% | 1012 hPa | 0 mm | 1.79 m/s, 161° | 0 W/m² | - |
| 1778040605 | 15.56° C | 83% | 1011.9 hPa | 0 mm | 2.68 m/s, 197° | 0 W/m² | - |
| 1778040303 | 15.56° C | 83% | 1012 hPa | 0 mm | 2.24 m/s, 204° | 0 W/m² | - |
| 1778039998 | 15.56° C | 82% | 1012 hPa | 0 mm | 2.24 m/s, 248° | 0 W/m² | - |
| 1778039695 | 15.56° C | 82% | 1012 hPa | 0 mm | 1.79 m/s, 258° | 0 W/m² | - |
| 1778039392 | 15.56° C | 82% | 1011.8 hPa | 0 mm | 1.34 m/s, 220° | 0 W/m² | - |
| 1778039089 | 15.56° C | 82% | 1011.9 hPa | 0 mm | 0.89 m/s, 241° | 0 W/m² | - |
| 1778038786 | 15.56° C | 82% | 1011.9 hPa | 0 mm | 2.24 m/s, 105° | 0 W/m² | - |
| 1778038484 | 15.56° C | 82% | 1011.9 hPa | 0 mm | 2.24 m/s, 220° | 0 W/m² | - |
* Rain latest hour (hover to see other rain measurements)
** Current wind speed in m/s (hover to see current wind gust speed)